When you browse on this site, cookies collect data to enhance your experience and personalize the content and advertising you see.
Visit our Privacy Policy to learn more. By continuing to use the site, you agree to this use of cookies and data.
  • In Hungary
  • List of Countries
  • For 7 days
  • Water Temperature
  • Satellite Maps
  • Weather Map
  • News
  • Weather Widgets
  • user-avatar
    Login

    Hourly Weather Rybnica

    Today, 17 January, Thursday

    Time Temperature Precipitation Wind Pressure Humidity
    00:00 -1°C° 0 mm 5 mps 717 mmHg 83%
    01:00 -1°C° 0 mm 4 mps 716 mmHg 84%
    02:00 -1°C° 0 mm 5 mps 716 mmHg 82%
    03:00 -1°C° 0 mm 5 mps 715 mmHg 79%
    04:00 -2°C° 0 mm 6 mps 715 mmHg 77%
    05:00 -1°C° 0 mm 6 mps 715 mmHg 78%
    06:00 -1°C° 0 mm 6 mps 715 mmHg 79%
    07:00 -1°C° 0 mm 6 mps 715 mmHg 80%
    08:00 -1°C° 0 mm 6 mps 715 mmHg 80%
    09:00 +1°C° 0 mm 6 mps 715 mmHg 80%
    10:00 +1°C° 0 mm 6 mps 716 mmHg 80%
    11:00 +2°C° 0 mm 5 mps 716 mmHg 80%
    12:00 +2°C° 0 mm 5 mps 716 mmHg 80%
    13:00 +4°C° 0 mm 4 mps 716 mmHg 79%
    14:00 +3°C° 0.2 mm 4 mps 715 mmHg 82%
    15:00 +3°C° 0.2 mm 4 mps 715 mmHg 85%
    16:00 +3°C° 0.2 mm 4 mps 715 mmHg 88%
    17:00 +3°C° 0.2 mm 4 mps 715 mmHg 87%
    18:00 +3°C° 0.2 mm 4 mps 715 mmHg 87%
    19:00 +1°C° 0.2 mm 5 mps 715 mmHg 87%
    20:00 +1°C° 0 mm 5 mps 715 mmHg 85%
    21:00 +1°C° 0 mm 5 mps 715 mmHg 82%
    22:00 +1°C° 0 mm 6 mps 715 mmHg 80%
    23:00 -1°C° 0.4 mm 6 mps 716 mmHg 81%

    Tomorrow, 18 January, Friday

    Time Temperature Precipitation Wind Pressure Humidity
    00:00 -1°C° 0.4 mm 5 mps 716 mmHg 81%
    01:00 -1°C° 0.4 mm 5 mps 717 mmHg 82%
    02:00 -2°C° 0.1 mm 5 mps 717 mmHg 83%
    03:00 -2°C° 0.1 mm 5 mps 718 mmHg 84%
    04:00 -4°C° 0.1 mm 5 mps 718 mmHg 85%
    05:00 -4°C° 0.2 mm 5 mps 719 mmHg 85%
    06:00 -4°C° 0.2 mm 5 mps 720 mmHg 86%
    07:00 -4°C° 0.2 mm 5 mps 720 mmHg 87%
    08:00 -4°C° 0.1 mm 5 mps 721 mmHg 85%
    09:00 -5°C° 0.1 mm 5 mps 722 mmHg 84%
    10:00 -5°C° 0.1 mm 5 mps 723 mmHg 83%
    11:00 -5°C° 0.1 mm 5 mps 723 mmHg 80%
    12:00 -5°C° 0.1 mm 5 mps 724 mmHg 78%
    13:00 -5°C° 0.1 mm 5 mps 725 mmHg 76%
    14:00 -4°C° 0 mm 4 mps 725 mmHg 77%
    15:00 -5°C° 0 mm 3 mps 725 mmHg 79%
    16:00 -5°C° 0 mm 3 mps 726 mmHg 81%
    17:00 -4°C° 0 mm 2 mps 726 mmHg 84%
    18:00 -5°C° 0 mm 2 mps 727 mmHg 87%
    19:00 -5°C° 0 mm 2 mps 727 mmHg 89%
    20:00 -6°C° 0 mm 2 mps 727 mmHg 88%
    21:00 -6°C° 0 mm 2 mps 727 mmHg 86%
    22:00 -6°C° 0 mm 2 mps 728 mmHg 85%
    23:00 -5°C° 0 mm 2 mps 728 mmHg 83%

    Day after tomorrow, 19 January, Saturday

    Time Temperature Precipitation Wind Pressure Humidity
    00:00 -5°C° 0 mm 2 mps 728 mmHg 81%
    01:00 -5°C° 0 mm 2 mps 728 mmHg 80%
    02:00 -5°C° 0 mm 2 mps 728 mmHg 80%
    03:00 -5°C° 0 mm 2 mps 728 mmHg 81%
    04:00 -5°C° 0 mm 2 mps 728 mmHg 82%
    05:00 -3°C° 0 mm 1 mps 728 mmHg 82%
    06:00 -3°C° 0 mm 1 mps 728 mmHg 83%
    07:00 -3°C° 0 mm 1 mps 728 mmHg 83%
    08:00 -3°C° 0 mm 1 mps 728 mmHg 81%
    09:00 -2°C° 0 mm 1 mps 728 mmHg 79%
    10:00 -1°C° 0 mm 1 mps 728 mmHg 77%
    11:00 0°C° 0 mm 1 mps 728 mmHg 74%
    12:00 0°C° 0 mm 1 mps 728 mmHg 71%
    13:00 +1°C° 0 mm 1 mps 727 mmHg 68%
    14:00 +1°C° 0 mm 1 mps 727 mmHg 72%
    15:00 0°C° 0 mm 1 mps 727 mmHg 75%
    16:00 -1°C° 0 mm 1 mps 726 mmHg 79%
    17:00 -1°C° 0 mm 1 mps 726 mmHg 79%
    18:00 -2°C° 0 mm 1 mps 726 mmHg 80%
    19:00 -3°C° 0 mm 1 mps 726 mmHg 81%
    20:00 -3°C° 0 mm 1 mps 726 mmHg 79%
    21:00 -3°C° 0 mm 1 mps 726 mmHg 78%
    22:00 -3°C° 0 mm 1 mps 726 mmHg 76%
    23:00 -3°C° 0 mm 1 mps 726 mmHg 75%

    20 January, Sunday

    Time Temperature Precipitation Wind Pressure Humidity
    00:00 -4°C° 0 mm 1 mps 725 mmHg 74%
    01:00 -4°C° 0 mm 1 mps 725 mmHg 73%
    02:00 -4°C° 0 mm 1 mps 725 mmHg 74%
    03:00 -4°C° 0 mm 1 mps 725 mmHg 75%
    04:00 -4°C° 0 mm 1 mps 724 mmHg 76%
    05:00 -4°C° 0 mm 1 mps 724 mmHg 77%
    06:00 -4°C° 0 mm 1 mps 724 mmHg 78%
    07:00 -5°C° 0 mm 0 mps 725 mmHg 79%
    08:00 -4°C° 0 mm 0 mps 725 mmHg 77%
    09:00 -4°C° 0 mm 0 mps 725 mmHg 75%
    10:00 -3°C° 0 mm 0 mps 725 mmHg 72%
    11:00 -2°C° 0 mm 0 mps 725 mmHg 69%
    12:00 -1°C° 0 mm 0 mps 725 mmHg 67%
    13:00 -1°C° 0 mm 0 mps 725 mmHg 64%
    14:00 -1°C° 0 mm 0 mps 725 mmHg 67%
    15:00 -1°C° 0 mm 1 mps 725 mmHg 71%
    16:00 -2°C° 0 mm 1 mps 725 mmHg 74%
    17:00 -2°C° 0 mm 1 mps 726 mmHg 75%
    18:00 -3°C° 0 mm 1 mps 726 mmHg 77%
    19:00 -5°C° 0 mm 0 mps 726 mmHg 78%
    20:00 -5°C° 0 mm 0 mps 726 mmHg 78%
    21:00 -5°C° 0 mm 0 mps 727 mmHg 78%
    22:00 -5°C° 0 mm 0 mps 727 mmHg 78%
    23:00 -5°C° 0 mm 0 mps 727 mmHg 77%

    21 January, Monday

    Time Temperature Precipitation Wind Pressure Humidity
    00:00 -5°C° 0 mm 0 mps 727 mmHg 76%
    01:00 -5°C° 0 mm 0 mps 727 mmHg 75%
    02:00 -5°C° 0 mm 0 mps 727 mmHg 75%
    03:00 -5°C° 0 mm 0 mps 727 mmHg 74%
    04:00 -6°C° 0 mm 1 mps 727 mmHg 73%
    05:00 -6°C° 0 mm 1 mps 727 mmHg 73%
    06:00 -6°C° 0 mm 1 mps 727 mmHg 72%
    07:00 -6°C° 0 mm 1 mps 727 mmHg 72%
    08:00 -4°C° 0 mm 1 mps 727 mmHg 69%
    09:00 -3°C° 0 mm 1 mps 727 mmHg 67%
    10:00 -2°C° 0 mm 1 mps 728 mmHg 65%
    11:00 -1°C° 0 mm 1 mps 727 mmHg 62%
    12:00 -3°C° 0 mm 2 mps 727 mmHg 58%
    13:00 -2°C° 0 mm 2 mps 727 mmHg 55%
    14:00 -3°C° 0 mm 2 mps 726 mmHg 59%
    15:00 -3°C° 0 mm 2 mps 726 mmHg 62%
    16:00 -4°C° 0 mm 2 mps 726 mmHg 66%
    17:00 -4°C° 0 mm 2 mps 725 mmHg 68%
    18:00 -5°C° 0 mm 2 mps 725 mmHg 69%
    19:00 -5°C° 0 mm 2 mps 725 mmHg 70%
    20:00 -5°C° 0 mm 2 mps 725 mmHg 71%
    21:00 -6°C° 0 mm 2 mps 725 mmHg 71%
    22:00 -6°C° 0 mm 2 mps 725 mmHg 72%
    23:00 -6°C° 0 mm 2 mps 724 mmHg 72%

    22 January, Tuesday

    Time Temperature Precipitation Wind Pressure Humidity
    00:00 -6°C° 0 mm 2 mps 724 mmHg 72%
    01:00 -6°C° 0 mm 2 mps 724 mmHg 72%
    02:00 -6°C° 0 mm 2 mps 723 mmHg 74%
    03:00 -6°C° 0 mm 2 mps 723 mmHg 75%
    04:00 -6°C° 0 mm 2 mps 722 mmHg 77%
    05:00 -6°C° 0 mm 2 mps 722 mmHg 79%
    06:00 -6°C° 0 mm 2 mps 722 mmHg 81%
    07:00 -5°C° 0 mm 2 mps 722 mmHg 83%
    08:00 -5°C° 0 mm 2 mps 721 mmHg 82%
    09:00 -4°C° 0 mm 2 mps 721 mmHg 82%
    10:00 -4°C° 0 mm 2 mps 721 mmHg 81%
    11:00 -1°C° 0 mm 1 mps 721 mmHg 79%
    12:00 0°C° 0 mm 1 mps 721 mmHg 77%
    13:00 +1°C° 0 mm 1 mps 720 mmHg 75%
    14:00 0°C° 0 mm 1 mps 720 mmHg 77%
    15:00 0°C° 0 mm 1 mps 719 mmHg 80%
    16:00 -1°C° 0 mm 1 mps 719 mmHg 82%
    17:00 -2°C° 0 mm 1 mps 719 mmHg 84%
    18:00 -2°C° 0 mm 1 mps 719 mmHg 85%
    19:00 -3°C° 0 mm 1 mps 719 mmHg 86%
    20:00 -3°C° 0 mm 1 mps 719 mmHg 86%
    21:00 -4°C° 0 mm 1 mps 719 mmHg 86%
    22:00 -4°C° 0 mm 1 mps 719 mmHg 85%
    23:00 -4°C° 0 mm 1 mps 719 mmHg 85%
    Show more